Tracking 29892 objects as of 21-Nov-2024
HD Live streaming from Space Station
objects crossing your sky now

TITAN 3C TRANSTAGE DEB

Track TITAN 3C TRANSTAGE DEB now!
10-day predictions


NORAD ID: 1653
Int'l Code: 1965-082Q
Perigee: 659.3 km
Apogee: 717.9 km
Inclination: 32.1 °
Period: 98.4 minutes
Semi major axis: 7059 km
RCS: 0.6097 m2 (medium)
Launch date: October 15, 1965
Source: United States (US)
Launch site: AIR FORCE EASTERN TEST RANGE (AFETR)

Note: This is SATELLITE DEBRIS
Your satellite tracking list
Your tracking list is empty




NASA's NSSDC Master Catalog

Two Line Element Set (TLE):
1 01653U 65082Q   24325.39328625  .00000951  00000-0  17010-3 0  9997
2 01653  32.1206 328.1909 0041515 261.6409  97.9528 14.63624461127352
Source of the keplerian elements: AFSPC